ATLAS CENTAUR 2 1 00694U 63047A 09182.25231323 .00000141 00000-0 53145-5 0 9966 2 00694 30.3557 228.1404 0616986 153.6586 209.6795 13.95017946275417 THOR AGENA D R/B 1 00733U 64002A 09182.08839422 -.00000012 00000-0 13832-4 0 8119 2 00733 99.1176 204.5989 0034389 354.7535 5.3274 14.31261255366190 SL-3 R/B 1 00877U 64053B 09182.95571318 -.00000090 00000-0 64793-5 0 1298 2 00877 65.0768 137.9149 0068536 186.0083 174.0208 14.58087274377492 SL-8 R/B 1 02802U 67045B 09183.16044969 .00000024 00000-0 15219-4 0 487 2 02802 74.0092 172.5383 0068613 205.9244 153.8474 14.42459804209672 SL-8 R/B 1 03230U 68040B 09183.18369718 .00000132 00000-0 20172-4 0 6876 2 03230 74.0376 270.8793 0034900 273.7322 85.9867 14.84216314203478 OAO 2 1 03597U 68110A 09182.68733995 -.00000004 00000-0 41303-5 0 857 2 03597 34.9961 9.3382 0005692 28.8196 331.2805 14.44866911137051 ISIS 1 1 03669U 69009A 09183.21704412 .00000108 00000-0 61342-4 0 8987 2 03669 88.4298 110.1818 1714839 132.1853 243.8191 11.28858595660902 METEOR 1-1 1 03835U 69029A 09182.75011895 .00002506 00000-0 47116-4 0 1203 2 03835 81.1651 28.4254 0007693 169.4623 190.6746 15.48104572199632 SERT 2 1 04327U 70009A 09182.58318749 .00000032 00000-0 10000-3 0 245 2 04327 99.2123 55.0188 0004378 290.3973 69.6686 13.58227274952756 SL-3 R/B 1 04814U 70113B 09182.77368640 -.00000140 00000-0 -91186-5 0 9964 2 04814 81.1512 205.7822 0041088 155.8282 204.4908 15.13604878 92444 SL-3 R/B 1 05118U 71028B 09182.45799297 .00000734 00000-0 52379-4 0 1799 2 05118 81.2369 220.1197 0048911 166.0065 194.2529 15.02306302 66269 ASTEX 1 1 05560U 71089A 09182.43130615 .00000044 00000-0 12519-4 0 8443 2 05560 92.7086 348.1361 0019005 64.8437 295.4742 14.46202959980667 SL-8 R/B 1 05730U 71119B 09183.15516246 .00000278 00000-0 24440-4 0 1868 2 05730 73.9033 127.0552 0805412 210.9403 144.1819 13.76814431802357 COSMOS 482 DESCENT CRAFT 1 06073U 72023E 09182.96955925 .00013994 33697-5 10531-3 0 432 2 06073 52.0963 10.8664 2210004 142.4183 235.3852 11.16860827 17006 OAO 3 (COPERNICUS) 1 06153U 72065A 09182.76710197 .00000008 00000-0 63383-5 0 2183 2 06153 35.0092 339.9135 0006206 153.2064 206.8954 14.56568333956574 ATLAS CENTAUR R/B 1 06155U 72065B 09182.96684724 .00000030 00000-0 90977-5 0 9005 2 06155 35.0068 20.4453 0041156 354.7514 5.2749 14.67975640964077 OPS 8180 (RADCAT) 1 06212U 72076A 09182.75978440 .00001786 00000-0 67096-4 0 7742 2 06212 98.5941 193.1266 0002130 327.2355 32.8716 15.28888649125105 SL-8 R/B 1 07004U 73107B 09183.11801358 .00002108 00000-0 88161-4 0 560 2 07004 73.9561 220.9127 0428519 81.2914 283.6532 14.67993403802499 SL-8 R/B 1 07338U 74044B 09182.41711570 .00007715 00000-0 15169-3 0 9070 2 07338 82.8817 66.7219 0220357 26.2863 334.9399 15.24836086801769 DELTA 1 R/B 1 08063U 75072B 09182.49501236 .00005161 00000-0 14710-3 0 2800 2 08063 89.1511 336.8164 0946105 217.9160 135.1629 13.68604630470641 SL-8 R/B 1 08459U 75112B 09182.12027360 .00000005 00000-0 10648-4 0 6910 2 08459 74.0608 44.5137 0016812 224.1088 135.8715 14.35884784756695 SL-3 R/B 1 10114U 77057B 09183.14432066 -.00000412 00000-0 -22175-4 0 8786 2 10114 97.4969 80.0032 0015738 305.5093 54.4666 15.08758325744229 SL-3 R/B 1 10861U 78045B 09182.06157987 .00000947 00000-0 24022-4 0 538 2 10861 81.2017 62.2618 0019389 298.9917 60.9377 15.38416892707459 SEASAT 1 1 10967U 78064A 09182.47784917 -.00000052 00000-0 25709-4 0 8562 2 10967 108.0178 353.3359 0002804 276.6648 83.4176 14.42147990627234 SL-14 R/B 1 11267U 79011B 09182.28728325 .00000070 00000-0 50508-5 0 8340 2 11267 82.5241 90.3329 0017855 158.7901 201.4062 14.87008664643095 SL-8 R/B 1 11574U 79089B 09182.16304690 .00000087 00000-0 36024-4 0 3145 2 11574 74.0666 181.7744 0015472 108.6561 251.6267 14.39599987558558 SL-14 R/B 1 11672U 80005B 09182.84998311 .00000090 00000-0 75260-5 0 4431 2 11672 82.5154 299.0111 0015624 231.8608 128.1198 14.86060340591381 SL-3 R/B 1 11849U 80051B 09182.05166656 .00000387 00000-0 18299-4 0 8677 2 11849 97.7018 313.9874 0010687 196.8407 163.2435 15.25559657589780 SL-3 R/B 1 11933U 80069B 09182.06786372 .00000709 00000-0 20403-4 0 7301 2 11933 81.2187 17.5449 0023776 156.6678 203.5678 15.34031940583298 COSMOS 1220 1 12054U 80089A 09182.66869800 .00000834 00000-0 43183-4 0 247 2 12054 64.9746 254.4898 0048338 170.8662 189.3366 15.23093333470432 SL-8 R/B 1 12139U 81003B 09182.74546723 .00001415 00000-0 85515-4 0 8040 2 12139 82.9596 49.5997 0592968 193.3320 165.1584 14.24258724429262 SL-8 R/B 1 12389U 81033B 09183.03500474 .00004663 00000-0 15002-3 0 3839 2 12389 82.9172 309.5613 0410534 143.4934 219.5009 14.77260213439191 SL-3 R/B 1 12465U 81046B 09182.42163340 -.00000241 00000-0 -18683-4 0 8606 2 12465 81.2282 100.9737 0036543 245.1023 114.6412 15.04403341529097 METEOR PRIRODA 1 12585U 81065A 09183.15880837 -.00000405 00000-0 -22719-4 0 4117 2 12585 97.4082 228.7350 0020443 31.0021 329.2408 15.07261600522814 SL-3 R/B 1 12904U 81103B 09182.43105546 -.00000114 00000-0 -11226-4 0 9227 2 12904 81.1808 336.5295 0031488 216.4098 143.4980 14.98507939 56499 SL-3 R/B 1 13068U 82013B 09183.13838413 -.00000142 00000-0 -13100-4 0 9262 2 13068 81.2074 281.6666 0025956 137.3767 222.9468 15.00279377486774 SL-3 R/B 1 13154U 82039B 09183.17807805 .00000111 00000-0 85865-5 0 6855 2 13154 81.1840 256.2300 0044905 352.1818 7.8717 14.92731755469346 COSMOS 1400 1 13402U 82079A 09182.20153621 .00000929 00000-0 32561-4 0 8233 2 13402 81.1317 107.0507 0009681 73.6376 286.5956 15.28391292471419 SL-3 R/B 1 13403U 82079B 09182.47826072 .00000073 00000-0 40284-5 0 458 2 13403 81.1737 337.7647 0041283 80.5475 280.0377 14.99128698460132 SL-3 R/B 1 13819U 83010B 09182.26451055 .00000112 00000-0 61390-5 0 4861 2 13819 81.1067 286.6292 0037192 205.3151 154.6230 15.05054334435093 COSMOS 1484 1 14207U 83075A 09181.80539017 .00001911 00000-0 42405-4 0 3534 2 14207 97.5386 300.2091 0016185 168.5265 191.6381 15.44977374863471 SL-3 R/B 1 14208U 83075B 09181.69359875 .00000672 00000-0 54647-4 0 6610 2 14208 97.6785 235.7686 0046425 340.0007 19.9395 15.02200829409830 COSMOS 1500 1 14372U 83099A 09181.85701563 -.00000243 00000-0 -19597-4 0 1673 2 14372 82.5319 299.9621 0013747 344.8108 15.2702 15.04117854398996 SL-8 R/B 1 14484U 83111B 09182.46305376 .00001492 00000-0 48608-4 0 9276 2 14484 82.8485 178.9967 0431302 268.1121 87.0665 14.72614887302509 COSMOS 1536 1 14699U 84013A 09183.23340854 .00000159 00000-0 11102-4 0 4983 2 14699 82.5270 246.3551 0013553 184.6159 175.4932 14.98067088376998 COSMOS 1544 1 14819U 84027A 09182.09137980 .00001094 00000-0 69435-4 0 5396 2 14819 82.5267 17.4225 0011400 83.9970 276.2553 15.07829054375475 SL-14 R/B 1 14820U 84027B 09183.08615608 .00000037 00000-0 17373-5 0 1203 2 14820 82.5402 177.3423 0017577 282.7908 77.1359 14.82094939365182 ERBS 1 15354U 84108B 09182.27418088 -.00000285 00000-0 77625-6 0 1404 2 15354 56.9877 97.1448 0023553 94.8400 265.5332 15.15792028354196 SL-8 R/B 1 15483U 85006B 09182.34428858 .00000026 00000-0 18394-4 0 8022 2 15483 74.0452 287.4258 0019601 264.1938 95.6985 14.35223893279258 SL-12 R/B(2) 1 15772U 85042D 09182.56406890 -.00000185 00000-0 -63194-4 0 9903 2 15772 71.1070 348.0213 0037341 242.4576 117.2769 14.20702731248429 SL-14 R/B 1 15945U 85069B 09183.12376830 .00000074 00000-0 61765-5 0 995 2 15945 82.5268 331.9241 0021030 139.1515 221.1299 14.82432108290157 SL-3 R/B 1 16111U 85090B 09182.74640829 .00000567 00000-0 29654-4 0 9787 2 16111 97.5924 242.5208 0033372 270.9156 88.8254 15.19668031299318 SL-16 R/B 1 16182U 85097B 09182.62125547 -.00000258 00000-0 -10654-3 0 8949 2 16182 71.0014 3.9610 0008477 194.9097 165.1792 14.15952642224612 SL-14 R/B 1 16496U 86006B 09183.15945552 .00000030 00000-0 77537-6 0 116 2 16496 82.5226 209.6331 0018285 295.3801 64.5514 14.82531656266447 SL-14 R/B 1 16792U 86046B 09182.15862803 .00000075 00000-0 64652-5 0 9116 2 16792 82.4809 55.1399 0025881 132.1599 228.1826 14.81661292244081 SL-14 R/B 1 16882U 86055B 09182.20592885 .00000081 00000-0 73227-5 0 9050 2 16882 82.5196 72.1563 0018499 258.4208 101.4927 14.81609566237105 EGP (AJISAI) 1 16908U 86061A 09182.82051127 -.00000083 00000-0 10000-3 0 9470 2 16908 50.0093 114.0086 0011258 254.6071 105.3521 12.44462539709424 COSMOS 1812 1 17295U 87003A 09182.77631165 .00000842 00000-0 61377-4 0 9518 2 17295 82.5221 92.8947 0013398 355.0629 5.0468 15.02420806220925 SL-14 R/B 1 17567U 87024B 09182.71019103 .00000058 00000-0 43175-5 0 8053 2 17567 82.5271 36.6669 0018519 201.0476 158.9974 14.82177282205601 COSMOS 1833 1 17589U 87027A 09182.44915868 .00000203 00000-0 13537-3 0 3462 2 17589 70.9043 174.8800 0000505 261.0753 99.0310 14.12739780149623 SL-16 R/B 1 17590U 87027B 09182.30094172 -.00000112 00000-0 -32003-4 0 3578 2 17590 70.9985 151.7999 0003240 47.4972 312.6511 14.16470290152321 SL-14 R/B 1 17912U 87038B 09182.44924164 .00000058 00000-0 43239-5 0 7931 2 17912 82.5009 255.0099 0022662 74.5875 285.7851 14.81480073197032 COSMOS 1844 1 17973U 87041A 09183.22600252 .00000319 00000-0 19357-3 0 3655 2 17973 70.8939 278.3417 0031285 168.4409 191.7446 14.13722342142264 SL-14 R/B 1 18153U 87055B 09182.82714569 .00000086 00000-0 78855-5 0 7995 2 18153 82.5001 310.4136 0020791 291.9289 67.9713 14.81708004187656 COSMOS 1867 1 18187U 87060A 09182.70118031 -.00000033 00000-0 25417-4 0 6310 2 18187 65.0113 84.1374 0013227 267.1450 92.8127 14.30854053147981 SL-14 R/B 1 18749U 88001B 09182.26312579 .00000023 00000-0 -78434-7 0 8067 2 18749 82.5128 146.1871 0019870 154.7433 205.4747 14.81648879159692 COSMOS 1933 1 18958U 88020A 09182.52673323 .00000104 00000-0 66728-5 0 6918 2 18958 82.5300 13.1944 0015242 43.5459 316.6926 14.96727500155776 SL-3 R/B 1 19046U 88032B 09183.16849635 -.00000269 00000-0 -18162-4 0 2202 2 19046 97.9028 220.3406 0038638 34.2304 326.1444 14.95905126137252 SL-16 R/B 1 19120U 88039B 09183.09303304 .00000058 00000-0 51135-4 0 7422 2 19120 71.0110 345.3194 0024100 318.4095 41.5212 14.18583709 94016 COSMOS 1953 1 19210U 88050A 09182.24692531 .00000085 00000-0 50597-5 0 8034 2 19210 82.5192 311.0263 0018397 31.6407 328.5922 14.96591996141799 SL-8 R/B 1 19257U 88053B 09182.10717180 -.00000109 00000-0 -28354-4 0 6246 2 19257 74.0474 157.9426 0019912 48.6506 311.6357 14.36385488101094 COSMOS 1975 1 19573U 88093A 09183.19779602 .00000137 00000-0 99571-5 0 5763 2 19573 82.5246 255.1811 0019439 44.1413 316.1341 14.95392210124282 SL-14 R/B 1 19574U 88093B 09182.01110257 .00000020 00000-0 -42447-6 0 7854 2 19574 82.5309 340.4634 0022019 337.7934 22.2339 14.81748275118603 SL-16 R/B 1 19650U 88102B 09182.58746435 -.00000089 00000-0 -20805-4 0 9035 2 19650 70.9988 7.6080 0016022 284.3587 75.5722 14.15515664 64515 INTERCOSMOS 24 1 20261U 89080A 09182.31988754 -.00000054 00000-0 -17679-4 0 9558 2 20261 82.5906 90.0174 1214316 307.7189 41.9717 12.53434727901352 SL-14 R/B 1 20262U 89080C 09182.36253361 .00000122 00000-0 29286-4 0 4021 2 20262 82.5921 116.5722 1243188 39.3848 329.1268 12.47758689898932 DELTA 1 R/B 1 20323U 89089B 09182.09349904 .00000014 00000-0 12942-4 0 5007 2 20323 97.0615 193.8052 0072306 217.8375 141.7732 14.46749348 34067 DELTA 2 R/B(1) 1 20453U 90008B 09183.03048801 .00000231 00000-0 20239-4 0 5224 2 20453 35.6342 48.0862 0377851 234.9427 121.5264 14.59418720 20205 COSMOS 2058 1 20465U 90010A 09182.41541002 .00000399 00000-0 37730-4 0 5052 2 20465 82.4919 146.8068 0016528 317.3531 42.6383 14.90973888 51234 SL-14 R/B 1 20466U 90010B 09182.60756556 .00000055 00000-0 41094-5 0 3984 2 20466 82.5004 209.8443 0021638 152.7171 207.5181 14.79900150 47295 SL-14 R/B 1 20511U 90018B 09182.39885395 .00000039 00000-0 21985-5 0 4095 2 20511 82.5221 138.8235 0016040 279.6998 80.2410 14.78618691 42206 HST 1 20580U 90037B 09180.01656090 .00000269 00000-0 78522-5 0 4136 2 20580 28.4708 25.0868 0003353 48.7292 311.3646 15.00811505851634 SL-16 R/B 1 20625U 90046B 09182.92034726 -.00000261 00000-0 -11121-3 0 3339 2 20625 70.9977 129.6411 0015617 209.4117 150.6123 14.14372905986731 COSMOS 2084 1 20663U 90055A 09182.48725318 -.00000073 00000-0 12596-4 0 5617 2 20663 62.7913 159.4933 0095860 18.7621 341.6961 14.85312924 27080 SL-6 R/B(2) 1 20666U 90055D 09183.14420734 .00000006 00000-0 20593-4 0 6283 2 20666 62.7857 89.7276 0112918 38.8798 322.0338 14.86389748 28347 SL-8 R/B 1 20775U 90078B 09183.11811416 .00001612 00000-0 90690-4 0 9313 2 20775 82.9343 205.3653 0730617 60.3485 306.8380 13.97978520938263 SL-8 R/B 1 21088U 91006B 09182.65266216 .00000083 00000-0 68795-4 0 4466 2 21088 82.9396 21.0249 0022384 173.0722 187.0748 13.76741052925497 OKEAN 3 1 21397U 91039A 09183.04880842 .00000107 00000-0 91994-5 0 6935 2 21397 82.5215 5.9025 0018922 186.8743 173.2219 14.86831093977086 COSMOS 2151 1 21422U 91042A 09181.94819809 .00000427 00000-0 44370-4 0 3230 2 21422 82.5011 123.2661 0013720 247.5642 112.4135 14.87482817975608 SL-14 R/B 1 21423U 91042B 09182.10946460 .00000021 00000-0 -30298-6 0 2016 2 21423 82.4922 155.8927 0019716 49.1935 311.0999 14.78397551972755 ERS 1 1 21574U 91050A 09183.12512888 -.00000023 00000-0 59354-5 0 4914 2 21574 98.1579 200.4918 0034774 27.4496 332.8520 14.35679975940238 ARIANE 40 R/B 1 21610U 91050F 09183.05553716 .00000047 00000-0 29731-4 0 604 2 21610 98.6361 148.6731 0002839 333.1784 26.9263 14.39078729941749 UARS 1 21701U 91063B 09182.13616330 .00004932 00000-0 69811-4 0 7033 2 21701 56.9713 303.3128 0074558 195.5120 164.3660 15.55433579981399 INTERCOSMOS 25 1 21819U 91086A 09181.90544240 .00000769 00000-0 14510-3 0 8380 2 21819 82.5541 2.7540 1550250 124.5213 251.2194 11.99012105763012 SL-14 R/B 1 21820U 91086B 09181.80948047 .00000377 00000-0 75176-4 0 7036 2 21820 82.5653 30.2287 1587388 217.0346 131.0208 11.90854048760298 SL-8 R/B 1 21876U 92008B 09181.91159302 .00000047 00000-0 33511-4 0 5626 2 21876 82.9259 118.2223 0033210 230.2387 129.5843 13.75368457871584 SL-8 R/B 1 21938U 92020B 09183.02622099 .00000111 00000-0 10045-3 0 5832 2 21938 82.9276 358.3350 0030397 24.1424 336.1148 13.75031098863746 SL-16 R/B 1 22220U 92076B 09182.94459452 .00000128 00000-0 88602-4 0 9308 2 22220 71.0004 57.3409 0011977 15.0067 345.1368 14.16148792859155 SL-16 R/B 1 22285U 92093B 09182.23688554 -.00000183 00000-0 -70083-4 0 9449 2 22285 71.0187 191.0637 0006425 246.7180 113.3243 14.14733626851230 COSMOS 2228 1 22286U 92094A 09183.17564646 .00000132 00000-0 13239-4 0 3659 2 22286 82.5190 223.8127 0023059 16.0874 344.1056 14.83044942891041 SL-16 R/B 1 22566U 93016B 09182.13141625 -.00000204 00000-0 -81162-4 0 6754 2 22566 71.0073 49.5048 0012096 241.6318 118.3576 14.14646328839970 COSMOS 2242 1 22626U 93024A 09182.69137720 .00000120 00000-0 11766-4 0 5355 2 22626 82.5212 251.9277 0021711 18.5448 341.6564 14.83198291874605 SL-16 R/B 1 22803U 93059B 09183.03836496 -.00000230 00000-0 -91306-4 0 8956 2 22803 70.9891 254.0731 0015909 137.1555 223.0824 14.16541847816573 ARIANE 40 R/B 1 22830U 93061H 09182.77461674 -.00000006 00000-0 14461-4 0 7687 2 22830 98.5752 132.1007 0011084 156.0196 204.1508 14.30479861822453 COSMOS 2278 1 23087U 94023A 09183.18027920 .00000282 00000-0 17521-3 0 5085 2 23087 71.0516 312.3051 0008716 324.2097 35.8448 14.13291291783717 SL-16 R/B 1 23088U 94023B 09182.25553435 .00000315 00000-0 18891-3 0 5693 2 23088 70.9990 264.2230 0004559 215.1841 144.8987 14.14462550784339 SL-16 R/B 1 23343U 94074B 09182.92238762 -.00000008 00000-0 63976-5 0 5157 2 23343 98.0257 148.4899 0007895 26.1262 334.0341 14.74983886788031 SL-16 R/B 1 23405U 94077B 09182.53172998 -.00000048 00000-0 00000+0 0 1090 2 23405 70.9748 207.3609 0001111 24.2541 335.8637 14.14918261754198 ERS 2 1 23560U 95021A 09183.14562723 -.00000311 00000-0 -99216-4 0 2311 2 23560 98.5541 258.1402 0001366 100.9729 259.1605 14.32245044742354 ARIANE 40+ R/B 1 23561U 95021B 09181.93014996 .00000013 00000-0 19239-4 0 3484 2 23561 98.4375 132.7587 0006026 254.3845 105.6675 14.36379931743564 SL-16 R/B 1 23705U 95058B 09181.90216302 .00000236 00000-0 14659-3 0 9311 2 23705 71.0184 9.4163 0011051 47.1736 313.0351 14.14866837705803 SL-16 R/B 1 24298U 96051B 09182.61535686 -.00000056 00000-0 -40050-5 0 893 2 24298 70.8798 63.8134 0018186 203.3505 156.6797 14.12382636661272 ORBVIEW 2 (SEASTAR) 1 24883U 97037A 09182.39758943 .00000052 00000-0 20758-4 0 8564 2 24883 98.3438 306.3827 0002076 133.5376 226.6007 14.59994107634515 SL-16 R/B 1 25400U 98043G 09181.78455839 -.00000005 00000-0 15622-4 0 2543 2 25400 98.3726 228.8975 0009487 189.3736 170.7268 14.25099207570804 SL-16 R/B 1 25407U 98045B 09182.64756733 -.00000154 00000-0 -54523-4 0 766 2 25407 71.0103 30.0807 0009126 307.6235 52.4035 14.15501136564713 ISS (ZARYA) 1 25544U 98067A 09182.53699648 -.00030644 00000-0 -20572-3 0 1383 2 25544 51.6377 233.2273 0007870 172.7609 290.5209 15.74090973608216 SL-8 R/B 1 25723U 99022C 09182.50521754 .00000184 00000-0 25101-4 0 3327 2 25723 48.4420 337.3785 0021964 196.8546 163.1656 15.16072908561470 CZ-4B R/B 1 25732U 99025C 09182.58742266 -.00000030 00000-0 59696-5 0 1394 2 25732 98.6430 157.6152 0038369 119.1037 241.3982 14.17187808524745 OKEAN O 1 25860U 99039A 09182.02379345 .00000015 00000-0 96473-5 0 7183 2 25860 97.7864 162.6540 0001699 96.7731 263.3675 14.73578444535187 SL-16 R/B 1 25861U 99039B 09183.06641815 -.00000038 00000-0 14486-5 0 850 2 25861 97.7016 171.3906 0017060 114.1823 246.1184 14.76609093536538 SL-14 R/B 1 26874U 01032B 09182.42117294 .00000321 00000-0 81729-5 0 1780 2 26874 82.4792 45.7385 0025439 88.0170 272.3994 15.34889444442455 ENVISAT 1 27386U 02009A 09183.33348940 -.00000009 00000-0 12788-4 0 1006 2 27386 98.5462 250.5004 0001045 90.5331 269.5984 14.32249757383662 IDEFIX & ARIANE 42P R/B 1 27422U 02021B 09182.38983834 .00000062 00000-0 41784-4 0 816 2 27422 98.5230 261.3126 0012413 177.5550 182.5694 14.28498301371431 AQUA 1 27424U 02022A 09182.41593325 -.00000105 00000-0 -13393-4 0 3543 2 27424 98.1782 124.4713 0001964 88.5941 271.5466 14.57129044380833 CZ-4B R/B 1 27432U 02024C 09183.05647415 .00000063 00000-0 54731-4 0 6168 2 27432 98.5740 166.7295 0051152 26.3382 334.0391 14.13608053368019 JB-3 2 (ZY 2B) 1 27550U 02049A 09183.21239628 .00000623 00000-0 27768-4 0 6631 2 27550 97.1074 216.9434 0010438 119.1933 306.3685 15.24778934371777 ADEOS-2 1 27597U 02056A 09182.66014416 -.00000137 00000-0 -39629-4 0 8929 2 27597 98.4728 246.6966 0000276 143.0572 217.0643 14.26168438340852 H-2A R/B 1 27601U 02056E 09182.23255985 .00000028 00000-0 26736-4 0 6634 2 27601 98.5723 271.6868 0072271 240.8615 118.5319 14.30709417341872 H-2A R/B 1 27700U 03009C 09183.12453352 .00002652 00000-0 71049-4 0 8645 2 27700 97.0160 205.0617 0043986 63.4935 297.0822 15.37872430349996 CZ-4B R/B 1 28059U 03049C 09182.76374448 -.00000002 00000-0 11441-4 0 6099 2 28059 98.5279 305.0855 0051974 88.4604 272.2552 14.51436704301787 CZ-2C R/B 1 28222U 04012C 09182.38138025 -.00000543 00000-0 -40793-4 0 6519 2 28222 97.4370 228.8608 0055495 8.5184 351.6981 14.97028162284104 SL-16 R/B 1 28353U 04021B 09183.14995635 -.00000077 00000-0 -15596-4 0 3889 2 28353 71.0013 53.4845 0006890 284.2566 75.7773 14.13918733261229 CZ-4B R/B 1 28471U 04044B 09182.56274225 .00001857 00000-0 44929-4 0 3826 2 28471 96.9809 206.7975 0103751 306.4788 52.6931 15.36993946260115 CZ-2C R/B 1 28480U 04046B 09180.66321285 .00000345 00000-0 14820-3 0 5443 2 28480 98.1864 88.3527 0143460 181.4859 178.5909 14.24822755239820 ARIANE 5 R/B 1 28499U 04049H 09183.00383263 .00000025 00000-0 11394-4 0 4405 2 28499 98.2613 161.0679 0096969 184.6014 175.4309 14.77105545244464 CZ-2D R/B 1 28738U 05024B 09182.62736367 -.00000338 00000-0 -21913-4 0 3540 2 28738 97.7639 198.1532 0013663 129.4067 230.8373 15.00635401218426 SUZAKU (ASTRO-EII) 1 28773U 05025A 09183.19278957 .00000237 00000-0 12526-4 0 283 2 28773 31.4047 174.0737 0006527 7.5892 352.4849 15.00803636218466 ALOS (DAICHI) 1 28931U 06002A 09183.15815483 -.00000015 00000-0 64422-5 0 8682 2 28931 98.1894 258.0936 0001397 97.0485 263.0891 14.59554619183088 H-2A R/B 1 28932U 06002B 09182.40331284 .00000121 00000-0 20852-4 0 1174 2 28932 98.2088 303.0627 0107515 31.8350 328.9290 14.82602523185809 AKARI (ASTRO-F) 1 28939U 06005A 09182.07021754 .00000029 00000-0 16494-4 0 279 2 28939 98.2450 185.1845 0009123 132.2041 227.9950 14.57547645178111 M-V-8 R/B 1 28942U 06005D 09182.58712054 .00022230 25374-5 17701-3 0 9419 2 28942 98.1439 338.6992 0178714 145.8594 215.4300 15.53571067188221 RESURS-DK 1 1 29228U 06021A 09183.22888499 .00001705 00000-0 39902-4 0 4370 2 29228 69.9334 331.8959 0160728 148.8582 212.2238 15.32359257170636 COSMOS 2421 1 29247U 06026A 09182.57005105 .00010034 00000-0 11746-3 0 7450 2 29247 65.0355 231.9519 0019936 262.4393 97.4493 15.61828700171336 GENESIS 1 1 29252U 06029A 09182.89462033 .00000104 00000-0 20771-4 0 8111 2 29252 64.5083 308.0089 0031620 209.0400 150.8958 15.03394227163128 H-2A R/B 1 29394U 06037B 09181.90073751 .00001978 00000-0 49835-4 0 8665 2 29394 97.3238 306.4850 0036092 310.4361 49.3737 15.40518670157299 M-V-7 R/B 1 29480U 06041B 09181.97531913 .00087926 55041-5 20473-3 0 8902 2 29480 98.2759 6.4606 0082702 74.1431 286.8930 15.91173468157336 CZ-4B R/B 1 29507U 06046C 09183.07888350 -.00000402 00000-0 -32967-4 0 8795 2 29507 97.6525 187.6846 0043272 262.1081 97.5197 14.92427356146470 SL-8 R/B 1 29659U 06060B 09182.80528002 .00000998 00000-0 38221-4 0 7431 2 29659 98.0776 283.0989 0037982 187.6700 172.3962 15.28733471141262 ATLAS 5 CENTAUR R/B 1 30778U 07006G 09181.79572722 .00000435 00000-0 25105-4 0 6185 2 30778 35.7047 298.1139 0031605 16.2613 343.9119 15.15682930128168 CZ-2C R/B 1 31114U 07010B 09180.74167768 -.00000040 00000-0 -19419-8 0 5895 2 31114 98.2680 217.4341 0061010 35.4132 325.1064 14.18628809114939 GENESIS 2 1 31789U 07028A 09182.98567072 -.00000033 00000-0 11220-4 0 5587 2 31789 64.5040 338.8287 0057973 260.2609 99.1955 15.03049719110351 COSMOS 2428 1 31792U 07029A 09183.18738402 -.00000361 00000-0 -16988-3 0 2411 2 31792 71.0038 19.8353 0010246 341.5084 18.5662 14.12409851103614 SL-16 R/B 1 31793U 07029B 09182.07251162 .00000249 00000-0 15596-3 0 5894 2 31793 70.9766 15.5540 0001528 248.0686 112.0276 14.14045215103572